Theta_e
306 307 308 313 322 323 323 324 323 323 322 322 324 326 326 324 326 333 332 331 336 337 345 342 344 343 340 340 339 340 340 340 340 339 338 336 335 335 336 333 330 331 333 334 332 329 330 333 335
305 308 311 315 318 316 318 319 318 320 322 324 325 325 325 325 324 330 328 329 335 336 342 344 343 343 341 339 339 340 339 339 339 338 337 335 334 335 335 334 330 334 335 333 330 331 334 334 334
306 307 315 316 316 315 315 315 315 316 318 321 323 324 323 326 321 321 319 329 335 337 339 345 343 342 342 340 338 340 339 338 338 338 337 335 335 333 333 331 333 336 334 332 330 335 335 334 333
305 310 313 316 314 314 314 314 313 316 317 319 321 323 323 319 320 316 317 324 335 338 339 345 344 342 342 341 338 339 339 338 337 337 336 335 335 335 335 334 334 336 333 332 335 336 334 332 332
305 308 312 313 312 311 311 311 311 313 317 317 319 322 321 317 314 313 314 319 333 336 339 341 344 343 341 341 339 337 339 338 337 337 336 336 334 334 333 331 332 333 332 335 334 335 332 329 329
305 308 308 309 310 309 309 310 311 313 313 313 313 317 319 314 311 312 313 314 319 329 337 341 342 342 341 340 339 338 337 338 337 337 336 335 334 332 331 329 331 332 332 331 334 333 332 328 325
304 305 304 305 306 306 307 308 310 310 310 309 309 310 313 311 310 308 311 313 315 318 329 334 338 341 340 339 338 335 336 336 337 337 336 335 334 331 331 329 330 330 329 329 329 330 330 326 325
304 304 304 303 304 305 306 307 308 308 308 306 307 309 310 308 307 307 308 310 312 314 314 313 330 332 339 338 337 334 335 336 336 337 335 335 334 332 330 328 328 328 328 328 329 329 327 327 327
304 303 303 304 304 304 304 303 305 305 306 305 305 304 304 305 305 305 306 305 307 310 312 311 308 327 329 335 337 334 334 334 337 335 334 335 334 332 330 328 328 328 328 328 328 327 327 327 327
304 303 303 303 303 302 302 302 301 302 302 303 302 303 304 304 304 304 304 303 304 305 309 310 309 310 318 328 332 335 334 333 336 335 334 335 333 331 329 328 327 327 327 328 328 327 327 328 327
303 303 303 303 302 302 302 301 301 301 301 301 301 301 302 302 303 302 302 303 303 304 306 309 309 306 310 319 329 331 335 335 335 335 335 334 333 331 329 328 327 325 326 327 328 328 327 327 328
302 302 302 302 302 302 301 301 301 301 301 301 301 301 301 301 301 301 301 302 302 303 303 304 309 306 303 310 317 325 336 335 336 335 335 333 332 330 329 328 326 325 326 327 327 327 327 327 327
301 302 302 302 301 301 301 301 300 300 300 301 301 302 301 301 301 302 302 302 302 303 303 304 308 304 303 306 311 320 328 336 335 335 335 333 332 330 329 327 326 325 325 325 327 329 328 327 326
302 302 302 302 302 301 302 301 301 301 302 302 302 302 302 301 301 302 302 302 302 302 303 305 305 304 303 307 307 314 324 325 336 335 335 333 332 330 328 327 326 325 324 324 325 328 329 328 325
302 302 302 302 302 302 302 301 302 301 302 302 301 301 301 302 302 302 302 302 302 302 303 303 304 304 303 305 307 309 314 322 334 335 335 333 331 329 327 326 326 325 324 325 327 328 329 327 326
303 302 303 304 303 303 302 303 303 303 302 302 302 301 302 302 302 303 303 302 302 302 303 303 304 305 304 305 308 308 313 322 329 335 334 333 331 329 327 326 325 324 324 325 328 328 328 327 327
304 303 302 301 302 302 304 304 303 302 302 302 301 301 302 302 302 303 303 302 302 302 303 303 304 305 305 304 304 310 317 325 326 334 334 333 331 328 327 326 325 324 323 325 327 327 328 327 326
302 302 302 301 301 301 302 303 303 303 303 300 299 298 299 299 301 303 303 303 303 302 302 303 304 304 304 305 305 319 322 327 328 331 332 331 330 328 327 326 325 324 323 324 324 326 326 325 325
301 302 300 299 300 301 304 304 302 302 300 297 295 295 295 296 297 299 301 303 303 302 303 303 304 304 305 308 309 322 326 328 329 331 329 330 329 328 326 325 324 324 324 324 324 324 325 325 324
301 300 299 299 299 298 298 298 297 300 295 294 293 292 293 294 294 296 298 301 303 302 303 303 304 304 305 310 312 325 324 326 328 328 329 329 327 327 326 325 324 324 324 324 324 323 324 324 324
299 299 300 297 296 297 296 300 301 296 293 292 291 290 290 291 292 294 296 299 301 302 303 303 304 306 306 315 316 323 326 327 327 327 327 327 327 326 325 324 324 322 323 323 323 322 322 322 322
298 297 296 297 298 298 299 302 295 293 291 290 289 288 287 289 292 293 295 298 300 302 303 303 304 304 311 318 319 325 326 325 325 326 326 326 325 325 324 323 322 322 322 322 322 322 320 320 320
296 295 296 297 299 299 300 302 294 290 289 288 287 286 286 291 299 294 295 297 299 301 302 304 306 313 317 320 323 325 325 325 325 325 325 324 324 324 324 322 323 322 322 321 320 321 321 320 320
295 295 299 302 302 302 304 303 293 290 288 286 286 285 286 292 297 300 300 299 300 301 302 311 311 309 313 320 319 320 322 324 321 321 316 316 317 320 323 322 321 321 320 320 319 318 317 312 311
294 294 298 301 304 304 301 296 291 288 286 285 285 284 286 289 294 296 299 302 306 307 306 305 303 301 301 304 304 304 308 310 305 302 301 299 299 301 303 314 316 310 312 309 308 309 304 301 297
294 292 291 296 301 301 299 296 293 287 285 284 284 285 285 287 290 293 294 295 299 300 299 299 299 298 297 296 296 296 297 296 295 295 293 292 292 292 293 295 298 297 295 295 295 293 293 292 292
292 292 293 295 297 299 299 294 295 287 284 283 283 284 284 285 287 290 291 291 292 293 295 294 293 292 293 293 292 292 291 291 291 291 291 291 290 289 290 294 293 291 294 293 292 291 289 288 287
293 292 293 293 290 296 300 291 287 284 282 281 281 282 283 284 285 287 288 288 288 289 290 289 288 289 289 288 288 288 288 288 288 289 288 289 288 287 287 291 292 289 289 289 288 284 284 281 280
291 290 293 293 292 295 295 290 284 282 281 280 280 281 282 283 284 285 285 285 285 285 286 286 286 286 285 285 284 284 283 283 283 283 284 284 284 285 284 286 286 285 284 282 280 280 279 279 279
292 289 289 289 290 289 290 290 283 280 280 279 279 280 281 282 282 283 283 283 283 283 284 284 284 284 284 283 283 282 281 281 280 280 280 281 281 280 280 279 279 278 278 278 278 278 277 277 277
Wind_Speed
12 10 6 7 4 6 12 11 13 13 15 8 7 2 4 9 6 1 12 13 11 8 10 25 27 27 29 29 29 29 28 26 23 22 22 22 23 22 21 22 20 19 18 16 15 16 17 14 12
14 10 6 4 4 10 10 14 17 15 15 4 3 8 4 7 9 7 5 18 14 8 2 22 26 26 28 29 29 30 28 26 24 23 23 23 23 23 22 20 20 21 20 16 16 17 16 13 11
13 9 3 4 7 16 10 10 14 7 14 8 2 7 4 2 13 5 14 17 14 9 6 19 24 26 28 30 30 30 29 27 25 25 23 23 23 23 22 22 21 19 19 19 18 17 16 15 15
8 4 4 8 19 16 19 16 5 5 8 6 5 4 3 17 7 11 15 18 16 16 6 16 18 23 29 29 30 30 30 29 27 25 25 25 23 22 23 21 18 21 19 20 17 17 16 15 14
11 4 9 12 18 19 16 14 8 7 5 9 2 3 5 11 15 16 18 20 18 16 14 8 17 24 29 30 30 32 31 29 29 27 26 25 25 25 23 23 22 21 21 17 19 17 15 16 14
4 3 8 14 17 16 13 5 3 3 7 11 11 5 2 18 21 20 19 18 16 15 12 5 13 21 30 31 30 31 32 31 30 30 27 25 26 25 23 22 23 21 20 18 16 15 15 15 14
7 7 15 18 18 19 17 7 5 5 6 9 11 7 7 13 18 21 21 17 15 16 13 11 5 19 31 33 31 30 32 32 33 31 28 27 27 23 20 20 22 21 20 20 16 14 14 15 14
3 4 15 16 15 19 11 2 6 2 4 10 7 3 3 7 20 18 19 19 15 14 18 17 11 12 24 32 32 32 33 34 33 31 29 29 28 23 21 18 19 19 20 18 17 14 13 13 13
5 4 10 15 14 14 9 12 4 2 4 4 7 10 13 31 31 20 18 17 19 15 15 19 18 13 10 10 34 33 33 34 34 31 30 30 30 25 23 22 20 19 20 18 16 15 14 13 13
6 6 8 7 9 8 8 11 10 8 7 9 10 12 20 20 19 13 14 17 19 20 16 18 18 16 18 13 8 36 36 36 36 34 32 32 30 29 26 25 20 19 19 19 17 16 15 14 13
5 13 15 14 15 15 14 10 9 13 15 10 10 10 9 10 11 13 16 21 26 20 18 13 17 17 16 18 11 12 39 40 38 37 36 34 29 30 28 27 24 24 21 19 19 17 16 15 12
11 13 14 14 14 14 13 15 13 14 16 13 14 13 12 13 10 10 14 21 23 22 20 19 16 17 15 14 18 21 29 36 34 38 38 32 30 33 32 30 28 26 24 21 20 19 18 14 16
16 16 13 12 14 14 14 14 15 19 15 15 14 16 15 13 13 20 23 26 24 22 19 19 12 15 14 14 18 18 13 30 41 39 38 35 33 35 32 32 30 27 25 23 18 19 20 18 16
12 15 15 15 16 16 17 19 14 15 17 17 16 15 13 13 11 17 17 18 23 18 20 11 10 14 14 12 13 21 15 24 35 37 38 33 32 35 36 34 32 30 27 24 21 20 20 21 19
10 16 16 18 18 10 10 12 14 17 17 17 11 9 10 9 14 12 18 14 22 16 19 15 15 14 15 12 13 16 23 20 16 35 39 31 31 33 32 34 35 33 28 23 20 20 18 19 18
16 13 11 9 2 7 3 13 16 13 8 11 11 10 13 12 9 16 18 10 15 16 17 17 13 13 16 13 14 14 16 16 7 37 36 32 30 30 30 30 33 31 29 24 18 19 20 19 19
4 11 17 15 15 15 7 13 12 12 14 13 9 10 11 10 11 19 14 10 15 14 17 16 12 12 16 14 16 17 16 12 9 23 40 30 31 32 32 29 32 31 29 22 16 16 18 17 15
15 14 12 19 16 20 18 17 15 14 10 10 12 14 16 16 13 17 17 15 10 6 17 17 13 14 18 15 13 16 15 10 7 10 23 33 32 35 28 27 28 31 30 27 20 17 17 15 13
15 16 20 18 17 13 12 12 8 12 5 12 14 14 16 17 19 26 28 12 7 8 19 18 17 17 16 16 13 16 9 4 11 22 16 19 33 29 21 24 24 26 27 27 24 19 17 14 11
15 21 20 15 11 12 11 17 15 8 17 16 16 17 18 18 19 20 26 25 15 11 18 17 18 15 17 18 14 10 11 7 9 10 18 20 23 29 23 25 22 22 23 19 18 19 13 10 15
17 18 14 19 21 18 12 4 10 11 15 17 17 18 19 20 21 18 18 20 24 21 17 17 18 15 18 18 14 14 11 8 14 13 19 24 25 26 24 22 25 21 20 18 18 19 17 13 11
18 15 20 20 9 5 7 3 15 14 17 21 21 22 23 25 21 17 15 16 19 23 16 17 16 18 20 19 17 18 13 15 13 22 26 24 30 25 22 21 16 19 19 17 16 18 20 18 14
7 24 19 18 8 1 1 1 6 13 18 24 22 25 25 25 15 10 11 15 18 23 23 15 13 15 14 11 18 17 15 17 15 16 19 23 26 25 26 20 18 13 15 16 16 15 16 15 13
26 17 10 2 3 0 9 1 8 9 15 21 22 26 26 25 22 18 13 15 17 17 16 9 8 14 14 12 14 16 20 20 15 11 14 14 13 13 14 19 13 13 10 9 10 9 9 13 14
19 16 4 3 3 3 6 9 6 14 14 15 20 22 23 22 22 22 22 20 17 21 16 17 21 25 20 30 27 25 27 27 27 24 26 24 24 23 20 20 16 18 17 18 21 23 23 23 28
10 5 3 4 5 4 8 4 5 16 11 13 14 16 21 27 23 22 22 25 25 24 23 23 26 24 20 34 31 34 35 35 35 34 33 35 33 32 33 38 37 32 34 35 36 39 39 37 37
9 5 8 4 5 3 3 5 4 23 16 18 21 25 26 24 23 22 22 27 26 27 24 25 26 21 29 33 36 39 38 37 39 42 44 46 40 37 43 52 50 45 46 44 43 43 42 40 38
5 6 3 3 5 6 3 3 4 22 23 23 24 23 22 22 22 20 20 27 28 28 25 26 26 25 32 39 40 39 35 36 41 49 47 50 44 43 46 52 50 45 47 45 46 45 43 42 38
8 5 4 2 2 2 3 2 3 10 14 17 16 18 18 19 18 17 20 26 26 31 29 25 19 29 40 44 44 43 42 38 40 47 51 51 50 53 51 56 53 50 49 47 47 45 40 40 37
9 7 4 2 6 1 3 1 2 6 10 12 15 16 16 16 15 16 21 25 27 29 29 19 16 47 41 46 49 47 42 39 42 47 44 50 54 51 49 50 50 46 44 43 44 42 38 37 36
Wind_Direction
335 323 281 260 244 232 243 232 257 257 264 272 312 282 276 330 267 253 87 28 12 1 189 178 185 191 187 183 182 183 181 176 166 164 158 158 159 157 154 158 157 156 149 151 148 143 141 141 156
334 312 247 256 229 242 246 231 241 241 231 151 54 330 285 294 313 82 351 360 1 4 143 189 189 198 195 189 187 187 187 180 171 168 164 163 163 160 159 162 160 159 152 156 152 148 154 156 151
312 280 261 218 231 236 249 267 290 348 327 206 229 205 233 35 49 62 9 5 0 3 333 192 192 202 202 197 192 192 190 186 178 173 167 165 166 165 165 164 168 167 154 152 155 157 153 149 141
305 207 265 254 246 244 238 246 321 341 319 299 47 329 11 48 59 31 18 14 13 2 333 199 204 206 205 202 198 196 194 189 183 180 172 169 171 174 169 171 165 158 160 153 163 157 156 153 147
261 258 248 250 249 260 272 285 318 319 304 298 180 260 288 57 51 25 22 22 17 3 3 230 217 209 205 207 204 200 195 192 189 186 180 176 176 177 176 178 176 168 162 166 167 159 164 160 160
279 225 258 254 262 266 263 11 27 12 331 321 321 312 184 84 38 15 10 14 12 2 5 325 241 226 208 209 208 202 198 195 194 188 186 184 181 184 187 185 181 180 173 170 167 172 173 170 169
239 270 268 272 274 284 299 43 20 359 329 298 2 334 318 68 37 4 352 353 359 356 353 356 295 232 211 208 210 206 202 199 194 191 190 186 184 182 185 187 184 187 181 177 183 193 185 177 173
309 282 265 264 271 273 284 53 75 57 276 345 356 262 274 306 351 346 335 341 337 355 343 355 350 44 219 213 210 206 203 199 199 194 193 186 185 188 188 186 185 190 181 180 185 191 188 182 181
279 253 244 251 257 272 312 317 152 99 236 249 285 289 299 301 310 323 310 326 321 334 336 334 343 330 326 246 214 209 207 206 200 198 194 185 187 190 182 185 191 195 187 186 190 192 194 191 190
220 239 248 266 293 316 301 313 320 318 273 257 254 264 278 283 312 339 336 321 315 314 328 326 330 330 335 292 288 213 207 207 205 198 193 189 191 187 186 188 187 196 194 191 194 201 201 199 200
240 251 287 313 326 331 321 311 313 304 278 276 269 280 281 313 311 310 309 297 299 306 308 320 312 332 321 314 316 278 208 206 205 201 195 191 189 189 190 185 189 192 192 198 197 202 206 205 201
282 283 288 299 316 319 305 312 296 287 285 298 301 294 290 289 288 282 284 283 286 295 299 297 294 315 325 315 315 311 207 201 200 198 196 183 183 185 187 188 190 193 194 198 198 202 203 204 205
283 277 285 310 313 307 301 285 280 275 278 275 277 275 275 277 274 271 270 273 276 279 290 284 280 309 316 310 311 309 346 205 199 192 191 183 182 181 182 186 190 196 195 199 199 202 200 196 211
302 302 298 292 285 283 278 276 268 273 282 277 273 275 275 268 269 274 269 272 275 275 283 297 294 309 303 299 310 303 287 312 198 191 189 183 182 182 184 185 190 193 201 200 205 206 201 200 206
303 288 285 276 265 248 276 287 270 268 268 257 270 270 267 262 269 264 266 263 274 276 287 292 302 302 291 276 285 300 311 297 221 193 191 182 183 175 181 182 186 193 199 201 210 209 203 204 201
272 265 276 303 182 273 321 288 282 289 349 334 320 312 302 299 294 280 269 252 269 273 285 287 290 296 287 275 266 294 309 299 342 199 197 189 175 176 178 180 181 187 196 203 206 204 194 204 197
16 323 312 308 317 320 301 294 274 302 307 291 285 282 275 271 271 283 274 253 247 254 284 278 285 292 289 279 266 263 291 294 304 215 188 186 183 184 181 183 184 187 190 201 202 204 196 201 190
311 304 301 301 311 297 291 286 269 274 354 14 10 359 355 350 335 315 286 252 259 279 281 290 285 281 285 283 269 255 267 284 258 191 177 193 183 176 181 181 185 189 188 201 208 206 202 208 203
293 307 307 304 302 2 326 322 311 26 32 27 10 355 346 336 331 329 333 289 288 291 278 275 272 270 275 280 248 250 234 249 147 182 215 170 184 175 173 170 182 191 192 201 215 208 217 207 204
321 313 305 302 335 319 305 305 300 348 23 10 7 356 339 330 324 319 317 323 318 281 270 267 268 273 280 268 239 231 223 212 203 148 183 198 167 172 172 170 186 201 199 198 207 211 215 216 213
320 302 315 312 317 288 251 9 53 36 22 11 9 351 339 325 310 303 301 304 307 293 269 264 265 275 277 254 229 237 186 143 200 190 194 175 185 172 175 188 176 195 208 198 203 210 213 209 208
315 336 310 301 319 296 37 141 33 12 3 6 359 346 336 324 294 280 282 282 287 292 272 267 277 289 291 237 214 201 184 152 172 180 195 189 187 180 172 181 195 201 205 209 211 209 217 222 219
309 313 301 289 261 256 122 138 9 20 358 352 348 340 335 330 334 245 261 275 284 292 303 309 315 312 287 241 216 196 162 146 170 186 169 178 188 184 187 180 188 197 211 217 228 212 205 223 224
335 314 298 202 124 266 41 158 31 15 355 341 343 340 338 340 352 359 321 271 265 277 293 55 44 52 66 136 141 138 116 112 115 121 105 104 124 145 161 176 191 188 194 180 176 154 135 114 109
345 353 356 20 29 44 14 63 65 16 6 346 339 332 339 348 0 2 6 8 40 45 54 61 62 56 59 88 88 90 99 108 100 94 92 81 77 83 94 140 138 108 123 117 114 112 103 98 91
346 37 55 346 346 321 40 20 122 35 7 351 344 343 351 4 358 5 8 10 21 39 44 60 64 63 69 73 74 77 83 86 88 87 82 77 72 73 85 95 97 99 95 98 98 92 92 89 90
323 29 290 274 211 266 83 25 208 353 354 358 359 2 3 358 359 2 12 15 20 28 39 52 63 69 72 79 76 74 79 84 87 87 85 86 82 80 85 92 92 90 96 93 94 91 86 86 83
10 337 4 326 17 338 74 88 282 342 340 351 358 1 355 357 2 8 15 15 21 27 38 49 59 70 75 77 74 72 75 79 85 90 88 91 91 85 86 93 93 91 91 94 89 83 82 79 74
5 17 322 238 92 260 308 259 26 334 344 347 349 355 356 358 0 8 16 18 26 31 36 45 56 76 73 74 74 71 67 70 79 83 85 85 86 84 82 88 90 87 85 85 86 85 84 81 77
85 351 330 45 321 239 211 278 77 24 2 346 358 354 354 5 5 17 19 24 29 31 35 31 58 71 72 74 73 72 72 73 75 75 80 87 85 83 83 85 85 84 84 83 83 82 79 74 71